Time,TemperatureF,DewpointF,PressureIn,WindDirection,WindDirectionDegrees,WindSpeedMPH,WindSpeedGustMPH,Humidity,HourlyPrecipIn,Conditions,Clouds,dailyrainin,SoftwareType,DateUTC
2013-05-16 00:02:00,49.8,32.0,28.41,WSW,240,0.0,0.0,48,0.00,,,-99.99,wx200d/1.3,2013-05-16 04:02:00,
2013-05-16 00:04:00,49.8,32.0,28.41,South,182,0.0,4.9,48,0.00,,,-99.99,wx200d/1.3,2013-05-16 04:04:00,
2013-05-16 00:06:00,49.8,32.0,28.41,West,259,0.0,0.0,48,0.00,,,-99.99,wx200d/1.3,2013-05-16 04:06:00,
2013-05-16 00:12:00,49.6,32.0,28.41,West,264,0.0,0.0,48,0.00,,,-99.99,wx200d/1.3,2013-05-16 04:12:00,
2013-05-16 00:16:00,49.6,32.0,28.41,West,272,0.0,0.0,49,0.00,,,-99.99,wx200d/1.3,2013-05-16 04:16:00,
2013-05-16 00:22:00,49.6,32.0,28.41,West,264,0.0,0.0,49,0.00,,,-99.99,wx200d/1.3,2013-05-16 04:22:00,
2013-05-16 00:24:00,49.5,32.0,28.41,WSW,247,0.0,0.0,49,0.00,,,-99.99,wx200d/1.3,2013-05-16 04:24:00,
2013-05-16 00:30:00,49.5,32.0,28.41,West,272,0.0,0.0,49,0.00,,,-99.99,wx200d/1.3,2013-05-16 04:30:00,
2013-05-16 00:36:00,49.5,32.0,28.41,SW,228,0.0,0.0,50,0.00,,,-99.99,wx200d/1.3,2013-05-16 04:36:00,
2013-05-16 00:42:00,49.5,32.0,28.41,West,261,2.2,3.6,50,0.00,,,-99.99,wx200d/1.3,2013-05-16 04:42:00,
2013-05-16 00:48:00,49.5,32.0,28.41,WSW,249,2.2,3.1,51,0.00,,,-99.99,wx200d/1.3,2013-05-16 04:48:00,
2013-05-16 00:54:00,49.6,34.0,28.41,West,259,0.0,0.0,52,0.00,,,-99.99,wx200d/1.3,2013-05-16 04:54:00,
2013-05-16 01:00:00,49.6,34.0,28.41,WSW,244,0.0,4.9,52,0.00,,,-99.99,wx200d/1.3,2013-05-16 05:00:00,
2013-05-16 01:06:00,49.6,34.0,28.41,SW,233,0.0,0.0,53,0.00,,,-99.99,wx200d/1.3,2013-05-16 05:06:00,
2013-05-16 01:12:00,49.6,34.0,28.41,SW,227,0.0,0.0,53,0.00,,,-99.99,wx200d/1.3,2013-05-16 05:12:00,
2013-05-16 01:18:00,49.6,34.0,28.41,SW,221,0.0,0.0,53,0.00,,,-99.99,wx200d/1.3,2013-05-16 05:18:00,
2013-05-16 01:24:00,49.6,34.0,28.41,NW,308,0.0,0.0,54,0.00,,,-99.99,wx200d/1.3,2013-05-16 05:24:00,
2013-05-16 01:30:00,49.5,34.0,28.41,SSW,209,0.0,0.0,54,0.00,,,-99.99,wx200d/1.3,2013-05-16 05:30:00,
2013-05-16 01:36:00,49.5,34.0,28.41,SSW,202,0.0,0.0,53,0.00,,,-99.99,wx200d/1.3,2013-05-16 05:36:00,
2013-05-16 01:42:00,49.5,34.0,28.41,SW,235,0.0,0.0,54,0.00,,,-99.99,wx200d/1.3,2013-05-16 05:42:00,
2013-05-16 01:48:00,49.5,34.0,28.41,SW,236,0.0,3.1,55,0.00,,,-99.99,wx200d/1.3,2013-05-16 05:48:00,
2013-05-16 01:54:00,49.5,34.0,28.41,West,262,0.0,0.0,55,0.00,,,-99.99,wx200d/1.3,2013-05-16 05:54:00,
2013-05-16 02:00:00,49.5,34.0,28.41,West,263,0.0,0.0,55,0.00,,,-99.99,wx200d/1.3,2013-05-16 06:00:00,
2013-05-16 02:06:00,49.5,36.0,28.41,SW,227,0.0,0.0,56,0.00,,,-99.99,wx200d/1.3,2013-05-16 06:06:00,
2013-05-16 02:12:00,49.6,36.0,28.41,SSW,203,0.0,0.0,57,0.00,,,-99.99,wx200d/1.3,2013-05-16 06:12:00,
2013-05-16 02:18:00,49.6,36.0,28.41,West,262,0.0,2.7,58,0.00,,,-99.99,wx200d/1.3,2013-05-16 06:18:00,
2013-05-16 02:24:00,49.8,36.0,28.41,WSW,253,0.0,2.2,58,0.00,,,-99.99,wx200d/1.3,2013-05-16 06:24:00,
2013-05-16 02:30:00,49.8,36.0,28.41,SW,226,0.0,0.0,57,0.00,,,-99.99,wx200d/1.3,2013-05-16 06:30:00,
2013-05-16 02:36:00,49.8,34.0,28.41,SW,216,0.0,0.0,55,0.00,,,-99.99,wx200d/1.3,2013-05-16 06:36:00,
2013-05-16 02:42:00,49.8,34.0,28.41,West,270,0.0,0.0,53,0.00,,,-99.99,wx200d/1.3,2013-05-16 06:42:00,
2013-05-16 02:48:00,50.0,32.0,28.41,SSW,199,0.0,0.0,49,0.00,,,-99.99,wx200d/1.3,2013-05-16 06:48:00,
2013-05-16 02:54:00,50.0,32.0,28.41,NNW,342,0.0,0.0,46,0.00,,,-99.99,wx200d/1.3,2013-05-16 06:54:00,
2013-05-16 03:00:00,50.0,32.0,28.41,SW,219,0.0,0.0,41,0.00,,,-99.99,wx200d/1.3,2013-05-16 07:00:00,
2013-05-16 03:06:00,50.0,32.0,28.38,West,264,0.0,0.0,40,0.00,,,-99.99,wx200d/1.3,2013-05-16 07:06:00,
2013-05-16 03:12:00,49.5,32.0,28.38,SW,230,0.0,0.0,39,0.00,,,-99.99,wx200d/1.3,2013-05-16 07:12:00,
2013-05-16 03:18:00,49.3,32.0,28.38,SW,218,0.0,0.0,39,0.00,,,-99.99,wx200d/1.3,2013-05-16 07:18:00,
2013-05-16 03:24:00,49.1,32.0,28.38,SSW,210,0.0,0.0,39,0.00,,,-99.99,wx200d/1.3,2013-05-16 07:24:00,
2013-05-16 03:30:00,48.7,32.0,28.38,WSW,250,0.0,0.0,39,0.00,,,-99.99,wx200d/1.3,2013-05-16 07:30:00,
2013-05-16 03:36:00,48.7,32.0,28.38,WSW,237,0.0,0.0,38,0.00,,,-99.99,wx200d/1.3,2013-05-16 07:36:00,
2013-05-16 03:42:00,48.7,32.0,28.38,WSW,248,0.0,0.0,38,0.00,,,-99.99,wx200d/1.3,2013-05-16 07:42:00,
2013-05-16 03:48:00,48.6,32.0,28.38,WSW,254,0.0,0.0,38,0.00,,,-99.99,wx200d/1.3,2013-05-16 07:48:00,
2013-05-16 03:54:00,48.2,32.0,28.38,SW,219,0.0,0.0,38,0.00,,,-99.99,wx200d/1.3,2013-05-16 07:54:00,
2013-05-16 04:00:00,48.0,32.0,28.38,SW,235,0.0,0.0,38,0.00,,,-99.99,wx200d/1.3,2013-05-16 08:00:00,
2013-05-16 04:06:00,48.0,32.0,28.38,SW,235,0.0,0.0,38,0.00,,,-99.99,wx200d/1.3,2013-05-16 08:06:00,
2013-05-16 04:12:00,47.8,32.0,28.38,SW,221,0.0,0.0,37,0.00,,,-99.99,wx200d/1.3,2013-05-16 08:12:00,
2013-05-16 04:18:00,47.8,32.0,28.38,SW,227,0.0,0.0,37,0.00,,,-99.99,wx200d/1.3,2013-05-16 08:18:00,
2013-05-16 04:24:00,47.8,32.0,28.38,SW,226,0.0,0.0,36,0.00,,,-99.99,wx200d/1.3,2013-05-16 08:24:00,
2013-05-16 04:30:00,47.7,32.0,28.38,SW,225,0.0,0.0,35,0.00,,,-99.99,wx200d/1.3,2013-05-16 08:30:00,
2013-05-16 04:36:00,47.3,32.0,28.38,SW,228,0.0,0.0,34,0.00,,,-99.99,wx200d/1.3,2013-05-16 08:36:00,
2013-05-16 04:42:00,47.3,32.0,28.38,SSW,213,0.0,0.0,33,0.00,,,-99.99,wx200d/1.3,2013-05-16 08:42:00,
2013-05-16 04:48:00,47.3,32.0,28.38,SW,220,0.0,0.0,31,0.00,,,-99.99,wx200d/1.3,2013-05-16 08:48:00,
2013-05-16 04:54:00,47.3,32.0,28.38,SW,223,0.0,0.0,31,0.00,,,-99.99,wx200d/1.3,2013-05-16 08:54:00,
2013-05-16 05:00:00,47.3,32.0,28.38,SW,230,0.0,0.0,30,0.00,,,-99.99,wx200d/1.3,2013-05-16 09:00:00,
2013-05-16 05:06:00,47.3,32.0,28.38,SW,230,0.0,0.0,29,0.00,,,-99.99,wx200d/1.3,2013-05-16 09:06:00,
2013-05-16 05:12:00,47.3,32.0,28.38,SW,223,0.0,0.0,29,0.00,,,-99.99,wx200d/1.3,2013-05-16 09:12:00,
2013-05-16 05:18:00,47.1,32.0,28.38,SW,223,0.0,0.0,28,0.00,,,-99.99,wx200d/1.3,2013-05-16 09:18:00,
2013-05-16 05:24:00,47.1,32.0,28.38,SW,223,0.0,0.0,28,0.00,,,-99.99,wx200d/1.3,2013-05-16 09:24:00,
2013-05-16 05:30:00,46.9,32.0,28.38,SW,223,0.0,0.0,28,0.00,,,-99.99,wx200d/1.3,2013-05-16 09:30:00,
2013-05-16 05:36:00,46.9,32.0,28.38,SW,223,0.0,0.0,27,0.00,,,-99.99,wx200d/1.3,2013-05-16 09:36:00,
2013-05-16 05:42:00,46.8,32.0,28.38,SW,223,0.0,0.0,27,0.00,,,-99.99,wx200d/1.3,2013-05-16 09:42:00,
2013-05-16 05:48:00,46.6,32.0,28.38,SW,223,0.0,0.0,27,0.00,,,-99.99,wx200d/1.3,2013-05-16 09:48:00,
2013-05-16 05:54:00,46.6,32.0,28.38,SW,223,0.0,0.0,27,0.00,,,-99.99,wx200d/1.3,2013-05-16 09:54:00,
2013-05-16 06:00:00,46.4,32.0,28.38,SW,223,0.0,0.0,27,0.00,,,-99.99,wx200d/1.3,2013-05-16 10:00:00,
2013-05-16 06:06:00,46.4,32.0,28.38,SW,223,0.0,0.0,27,0.00,,,-99.99,wx200d/1.3,2013-05-16 10:06:00,
2013-05-16 06:12:00,46.4,32.0,28.38,SW,223,0.0,0.0,27,0.00,,,-99.99,wx200d/1.3,2013-05-16 10:12:00,
2013-05-16 06:18:00,46.6,32.0,28.38,SW,223,0.0,0.0,27,0.00,,,-99.99,wx200d/1.3,2013-05-16 10:18:00,
2013-05-16 06:24:00,46.6,32.0,28.41,SW,223,0.0,0.0,27,0.00,,,-99.99,wx200d/1.3,2013-05-16 10:24:00,
2013-05-16 06:30:00,46.6,32.0,28.41,SW,223,0.0,0.0,27,0.00,,,-99.99,wx200d/1.3,2013-05-16 10:30:00,
2013-05-16 06:36:00,46.8,32.0,28.41,SW,223,0.0,0.0,27,0.00,,,-99.99,wx200d/1.3,2013-05-16 10:36:00,
2013-05-16 06:42:00,47.1,32.0,28.41,SW,223,0.0,0.0,27,0.00,,,-99.99,wx200d/1.3,2013-05-16 10:42:00,
2013-05-16 06:48:00,47.5,32.0,28.41,WSW,242,0.0,0.0,27,0.00,,,-99.99,wx200d/1.3,2013-05-16 10:48:00,
2013-05-16 06:54:00,47.7,32.0,28.41,South,183,0.0,0.0,27,0.00,,,-99.99,wx200d/1.3,2013-05-16 10:54:00,
2013-05-16 07:00:00,48.0,32.0,28.41,SW,224,0.0,0.0,27,0.00,,,-99.99,wx200d/1.3,2013-05-16 11:00:00,
2013-05-16 07:06:00,48.4,32.0,28.41,SW,234,0.0,0.0,24,0.00,,,-99.99,wx200d/1.3,2013-05-16 11:06:00,
2013-05-16 07:12:00,48.9,32.0,28.41,West,272,0.0,0.0,21,0.00,,,-99.99,wx200d/1.3,2013-05-16 11:12:00,
2013-05-16 07:18:00,49.5,32.0,28.41,SSW,209,0.0,0.0,21,0.00,,,-99.99,wx200d/1.3,2013-05-16 11:18:00,
2013-05-16 07:24:00,49.8,32.0,28.41,North,357,0.0,0.0,19,0.00,,,-99.99,wx200d/1.3,2013-05-16 11:24:00,
2013-05-16 07:30:00,50.4,32.0,28.41,WSW,242,0.0,2.7,19,0.00,,,-99.99,wx200d/1.3,2013-05-16 11:30:00,
2013-05-16 07:36:00,50.9,32.0,28.41,West,269,0.0,3.6,19,0.00,,,-99.99,wx200d/1.3,2013-05-16 11:36:00,
2013-05-16 07:42:00,51.4,32.0,28.41,SW,217,0.0,0.0,19,0.00,,,-99.99,wx200d/1.3,2013-05-16 11:42:00,
2013-05-16 07:48:00,52.0,32.0,28.41,West,279,0.0,3.6,18,0.00,,,-99.99,wx200d/1.3,2013-05-16 11:48:00,
2013-05-16 07:54:00,52.5,32.0,28.41,South,188,2.7,2.7,18,0.00,,,-99.99,wx200d/1.3,2013-05-16 11:54:00,
2013-05-16 08:00:00,53.2,32.0,28.41,NW,321,2.2,4.9,18,0.00,,,-99.99,wx200d/1.3,2013-05-16 12:00:00,
2013-05-16 08:06:00,53.8,32.0,28.41,East,98,0.0,0.0,18,0.00,,,-99.99,wx200d/1.3,2013-05-16 12:06:00,
2013-05-16 08:12:00,54.1,32.0,28.41,NE,38,0.0,2.2,18,0.00,,,-99.99,wx200d/1.3,2013-05-16 12:12:00,
2013-05-16 08:18:00,54.5,32.0,28.44,SSE,159,2.2,2.2,18,0.00,,,-99.99,wx200d/1.3,2013-05-16 12:18:00,
2013-05-16 08:24:00,54.9,32.0,28.44,NNW,327,0.0,4.0,18,0.00,,,-99.99,wx200d/1.3,2013-05-16 12:24:00,
2013-05-16 08:30:00,55.9,32.0,28.44,North,0,2.2,2.2,17,0.00,,,-99.99,wx200d/1.3,2013-05-16 12:30:00,
2013-05-16 08:36:00,56.5,32.0,28.44,SSE,154,2.7,2.7,17,0.00,,,-99.99,wx200d/1.3,2013-05-16 12:36:00,
2013-05-16 08:42:00,56.8,32.0,28.44,SSE,161,3.1,3.1,17,0.00,,,-99.99,wx200d/1.3,2013-05-16 12:42:00,
2013-05-16 08:48:00,57.2,32.0,28.44,NNW,341,0.0,2.7,17,0.00,,,-99.99,wx200d/1.3,2013-05-16 12:48:00,
2013-05-16 08:54:00,57.9,32.0,28.44,SSW,213,4.5,5.8,17,0.00,,,-99.99,wx200d/1.3,2013-05-16 12:54:00,
2013-05-16 09:00:00,58.5,32.0,28.44,SW,235,2.7,6.7,17,0.00,,,-99.99,wx200d/1.3,2013-05-16 13:00:00,
2013-05-16 09:06:00,59.2,32.0,28.44,SSW,196,0.0,0.0,17,0.00,,,-99.99,wx200d/1.3,2013-05-16 13:06:00,
2013-05-16 09:12:00,60.1,32.0,28.44,NE,38,2.7,4.0,17,0.00,,,-99.99,wx200d/1.3,2013-05-16 13:12:00,
2013-05-16 09:18:00,60.6,32.0,28.44,South,186,2.2,3.6,17,0.00,,,-99.99,wx200d/1.3,2013-05-16 13:18:00,
2013-05-16 09:24:00,61.5,32.0,28.44,WSW,243,0.0,3.6,16,0.00,,,-99.99,wx200d/1.3,2013-05-16 13:24:00,
2013-05-16 09:30:00,62.6,32.0,28.44,North,9,3.1,7.6,16,0.00,,,-99.99,wx200d/1.3,2013-05-16 13:30:00,
2013-05-16 09:36:00,63.7,32.0,28.44,North,357,3.6,3.6,16,0.00,,,-99.99,wx200d/1.3,2013-05-16 13:36:00,
2013-05-16 09:42:00,64.4,32.0,28.44,West,271,2.2,3.1,15,0.00,,,-99.99,wx200d/1.3,2013-05-16 13:42:00,
2013-05-16 09:48:00,65.3,32.0,28.44,West,276,3.1,5.8,15,0.00,,,-99.99,wx200d/1.3,2013-05-16 13:48:00,
2013-05-16 09:54:00,65.8,32.0,28.44,SW,236,3.1,4.9,15,0.00,,,-99.99,wx200d/1.3,2013-05-16 13:54:00,
2013-05-16 10:00:00,66.6,32.0,28.44,East,82,3.6,3.6,15,0.00,,,-99.99,wx200d/1.3,2013-05-16 14:00:00,
2013-05-16 10:06:00,66.7,32.0,28.44,ESE,119,0.0,2.2,15,0.00,,,-99.99,wx200d/1.3,2013-05-16 14:06:00,
2013-05-16 10:12:00,67.3,32.0,28.44,ESE,111,2.7,5.8,15,0.00,,,-99.99,wx200d/1.3,2013-05-16 14:12:00,
2013-05-16 10:18:00,67.5,32.0,28.44,East,79,4.0,0.0,15,0.00,,,-99.99,wx200d/1.3,2013-05-16 14:18:00,
2013-05-16 10:24:00,68.2,32.0,28.44,WSW,256,3.6,4.0,15,0.00,,,-99.99,wx200d/1.3,2013-05-16 14:24:00,
2013-05-16 10:30:00,68.7,32.0,28.44,North,0,4.5,4.9,15,0.00,,,-99.99,wx200d/1.3,2013-05-16 14:30:00,
2013-05-16 10:36:00,69.3,32.0,28.44,NNW,327,3.6,5.8,15,0.00,,,-99.99,wx200d/1.3,2013-05-16 14:36:00,
2013-05-16 10:42:00,69.4,32.0,28.44,ENE,57,3.6,3.6,15,0.00,,,-99.99,wx200d/1.3,2013-05-16 14:42:00,
2013-05-16 10:48:00,69.8,32.0,28.44,North,9,2.7,2.7,14,0.00,,,-99.99,wx200d/1.3,2013-05-16 14:48:00,
2013-05-16 10:54:00,70.9,32.0,28.44,WSW,251,4.0,5.4,14,0.00,,,-99.99,wx200d/1.3,2013-05-16 14:54:00,
2013-05-16 11:00:00,71.2,32.0,28.44,North,0,2.7,3.6,14,0.00,,,-99.99,wx200d/1.3,2013-05-16 15:00:00,
2013-05-16 11:06:00,71.1,32.0,28.44,NNE,29,4.5,5.8,14,0.00,,,-99.99,wx200d/1.3,2013-05-16 15:06:00,
2013-05-16 11:12:00,71.4,32.0,28.44,North,10,3.1,3.1,14,0.00,,,-99.99,wx200d/1.3,2013-05-16 15:12:00,
2013-05-16 11:18:00,72.5,32.0,28.44,SSW,212,2.7,2.7,14,0.00,,,-99.99,wx200d/1.3,2013-05-16 15:18:00,
2013-05-16 11:24:00,72.9,32.0,28.44,NW,321,5.4,6.3,14,0.00,,,-99.99,wx200d/1.3,2013-05-16 15:24:00,
2013-05-16 11:30:00,72.7,32.0,28.44,East,98,4.0,4.0,14,0.00,,,-99.99,wx200d/1.3,2013-05-16 15:30:00,
2013-05-16 11:36:00,73.0,32.0,28.44,North,353,4.5,5.4,14,0.00,,,-99.99,wx200d/1.3,2013-05-16 15:36:00,
2013-05-16 11:42:00,73.6,32.0,28.44,North,357,4.9,5.4,13,0.00,,,-99.99,wx200d/1.3,2013-05-16 15:42:00,
2013-05-16 11:48:00,73.0,32.0,28.44,NNE,24,3.6,5.8,14,0.00,,,-99.99,wx200d/1.3,2013-05-16 15:48:00,
2013-05-16 11:54:00,73.2,32.0,28.44,WSW,246,4.0,6.3,14,0.00,,,-99.99,wx200d/1.3,2013-05-16 15:54:00,
2013-05-16 12:00:00,73.2,32.0,28.44,West,271,4.5,4.5,14,0.00,,,-99.99,wx200d/1.3,2013-05-16 16:00:00,
2013-05-16 12:06:00,73.2,32.0,28.44,WNW,283,4.9,6.3,14,0.00,,,-99.99,wx200d/1.3,2013-05-16 16:06:00,
2013-05-16 12:12:00,73.2,32.0,28.44,North,4,6.7,6.7,14,0.00,,,-99.99,wx200d/1.3,2013-05-16 16:12:00,
2013-05-16 12:18:00,73.6,32.0,28.44,NNW,344,3.1,5.8,13,0.00,,,-99.99,wx200d/1.3,2013-05-16 16:18:00,
2013-05-16 12:24:00,73.6,32.0,28.44,ENE,75,4.9,8.1,13,0.00,,,-99.99,wx200d/1.3,2013-05-16 16:24:00,
2013-05-16 12:30:00,73.9,32.0,28.44,SW,235,2.7,3.1,13,0.00,,,-99.99,wx200d/1.3,2013-05-16 16:30:00,
2013-05-16 12:36:00,74.1,32.0,28.41,ESE,120,4.9,8.7,13,0.00,,,-99.99,wx200d/1.3,2013-05-16 16:36:00,
2013-05-16 12:42:00,73.9,32.0,28.41,SW,232,4.9,4.9,13,0.00,,,-99.99,wx200d/1.3,2013-05-16 16:42:00,
2013-05-16 12:48:00,73.9,32.0,28.41,SSE,158,5.4,5.4,13,0.00,,,-99.99,wx200d/1.3,2013-05-16 16:48:00,
2013-05-16 12:54:00,73.9,32.0,28.41,SSE,151,4.9,8.3,13,0.00,,,-99.99,wx200d/1.3,2013-05-16 16:54:00,
2013-05-16 13:00:00,74.1,32.0,28.41,ENE,68,5.4,5.4,13,0.00,,,-99.99,wx200d/1.3,2013-05-16 17:00:00,
2013-05-16 13:06:00,73.9,32.0,28.41,NE,50,8.3,10.1,13,0.00,,,-99.99,wx200d/1.3,2013-05-16 17:06:00,
2013-05-16 13:12:00,73.9,32.0,28.41,SSE,147,5.8,17.0,13,0.00,,,-99.99,wx200d/1.3,2013-05-16 17:12:00,
2013-05-16 13:18:00,73.6,32.0,28.41,East,98,3.6,5.4,13,0.00,,,-99.99,wx200d/1.3,2013-05-16 17:18:00,
2013-05-16 13:24:00,73.8,32.0,28.41,NNE,12,4.5,4.5,13,0.00,,,-99.99,wx200d/1.3,2013-05-16 17:24:00,
2013-05-16 13:30:00,73.6,32.0,28.41,ENE,65,4.9,7.6,13,0.00,,,-99.99,wx200d/1.3,2013-05-16 17:30:00,
2013-05-16 13:36:00,73.0,32.0,28.41,SE,135,5.4,5.4,14,0.00,,,-99.99,wx200d/1.3,2013-05-16 17:36:00,
2013-05-16 13:42:00,72.9,32.0,28.41,NNW,344,5.8,5.8,14,0.00,,,-99.99,wx200d/1.3,2013-05-16 17:42:00,
2013-05-16 13:48:00,73.0,32.0,28.41,WSW,238,6.3,6.3,14,0.00,,,-99.99,wx200d/1.3,2013-05-16 17:48:00,
2013-05-16 13:54:00,73.8,32.0,28.41,East,89,6.3,6.3,13,0.00,,,-99.99,wx200d/1.3,2013-05-16 17:54:00,
2013-05-16 14:00:00,73.9,32.0,28.41,WSW,255,4.9,8.3,13,0.00,,,-99.99,wx200d/1.3,2013-05-16 18:00:00,
2013-05-16 14:06:00,73.4,32.0,28.41,WNW,293,4.0,4.0,13,0.00,,,-99.99,wx200d/1.3,2013-05-16 18:06:00,
2013-05-16 14:12:00,73.8,32.0,28.41,NNE,21,5.4,5.4,13,0.00,,,-99.99,wx200d/1.3,2013-05-16 18:12:00,
2013-05-16 14:18:00,73.6,32.0,28.41,WSW,256,4.5,4.5,13,0.00,,,-99.99,wx200d/1.3,2013-05-16 18:18:00,
2013-05-16 14:24:00,73.9,32.0,28.41,SSE,164,7.2,17.4,13,0.00,,,-99.99,wx200d/1.3,2013-05-16 18:24:00,
2013-05-16 14:30:00,73.8,32.0,28.41,East,92,6.7,6.7,13,0.00,,,-99.99,wx200d/1.3,2013-05-16 18:30:00,
2013-05-16 14:36:00,73.4,32.0,28.41,North,6,4.0,7.6,13,0.00,,,-99.99,wx200d/1.3,2013-05-16 18:36:00,
2013-05-16 14:42:00,73.9,32.0,28.41,West,262,8.1,8.1,13,0.00,,,-99.99,wx200d/1.3,2013-05-16 18:42:00,
2013-05-16 14:48:00,73.8,32.0,28.41,West,262,3.6,3.6,13,0.00,,,-99.99,wx200d/1.3,2013-05-16 18:48:00,
2013-05-16 14:54:00,73.9,32.0,28.41,North,357,4.9,6.3,13,0.00,,,-99.99,wx200d/1.3,2013-05-16 18:54:00,
2013-05-16 15:00:00,73.8,32.0,28.41,SSE,156,6.3,6.3,13,0.00,,,-99.99,wx200d/1.3,2013-05-16 19:00:00,
2013-05-16 15:06:00,73.8,32.0,28.41,NNE,22,8.1,8.1,13,0.00,,,-99.99,wx200d/1.3,2013-05-16 19:06:00,
2013-05-16 15:12:00,73.4,32.0,28.41,NNW,329,5.8,5.8,13,0.00,,,-99.99,wx200d/1.3,2013-05-16 19:12:00,
2013-05-16 15:18:00,73.6,32.0,28.41,SSE,158,6.3,8.1,13,0.00,,,-99.99,wx200d/1.3,2013-05-16 19:18:00,
2013-05-16 15:24:00,73.4,32.0,28.41,South,173,4.5,6.3,13,0.00,,,-99.99,wx200d/1.3,2013-05-16 19:24:00,
2013-05-16 15:30:00,73.2,32.0,28.41,North,6,4.0,4.9,14,0.00,,,-99.99,wx200d/1.3,2013-05-16 19:30:00,
2013-05-16 15:36:00,73.4,32.0,28.41,NNW,341,5.4,5.4,13,0.00,,,-99.99,wx200d/1.3,2013-05-16 19:36:00,
2013-05-16 15:42:00,73.4,32.0,28.41,WSW,238,4.5,4.5,13,0.00,,,-99.99,wx200d/1.3,2013-05-16 19:42:00,
2013-05-16 15:48:00,72.9,32.0,28.41,North,1,4.0,7.6,14,0.00,,,-99.99,wx200d/1.3,2013-05-16 19:48:00,
2013-05-16 15:54:00,73.0,32.0,28.41,SE,129,4.0,4.0,14,0.00,,,-99.99,wx200d/1.3,2013-05-16 19:54:00,
2013-05-16 16:00:00,72.7,32.0,28.41,SE,136,4.5,4.5,14,0.00,,,-99.99,wx200d/1.3,2013-05-16 20:00:00,
2013-05-16 16:06:00,72.7,32.0,28.41,WNW,295,5.4,8.1,14,0.00,,,-99.99,wx200d/1.3,2013-05-16 20:06:00,
2013-05-16 16:12:00,73.0,32.0,28.41,West,264,4.0,4.9,14,0.00,,,-99.99,wx200d/1.3,2013-05-16 20:12:00,
2013-05-16 16:18:00,73.0,32.0,28.41,NNE,29,5.4,5.4,14,0.00,,,-99.99,wx200d/1.3,2013-05-16 20:18:00,
2013-05-16 16:24:00,73.0,32.0,28.41,NE,48,4.5,4.5,14,0.00,,,-99.99,wx200d/1.3,2013-05-16 20:24:00,
2013-05-16 16:30:00,73.2,32.0,28.41,North,353,2.7,4.0,14,0.00,,,-99.99,wx200d/1.3,2013-05-16 20:30:00,
2013-05-16 16:36:00,73.2,32.0,28.41,North,9,4.0,8.1,14,0.00,,,-99.99,wx200d/1.3,2013-05-16 20:36:00,
2013-05-16 16:42:00,72.9,32.0,28.41,WSW,242,8.1,8.1,14,0.00,,,-99.99,wx200d/1.3,2013-05-16 20:42:00,
2013-05-16 16:48:00,72.9,32.0,28.41,South,170,4.9,5.4,14,0.00,,,-99.99,wx200d/1.3,2013-05-16 20:48:00,
2013-05-16 16:54:00,72.5,32.0,28.41,NW,315,4.0,5.8,14,0.00,,,-99.99,wx200d/1.3,2013-05-16 20:54:00,
2013-05-16 17:00:00,72.5,32.0,28.41,NE,49,5.4,8.1,14,0.00,,,-99.99,wx200d/1.3,2013-05-16 21:00:00,
2013-05-16 17:06:00,72.5,32.0,28.41,NNW,344,4.0,4.0,14,0.00,,,-99.99,wx200d/1.3,2013-05-16 21:06:00,
2013-05-16 17:12:00,72.5,32.0,28.41,North,6,5.8,7.6,14,0.00,,,-99.99,wx200d/1.3,2013-05-16 21:12:00,
2013-05-16 17:18:00,72.5,32.0,28.41,SW,227,5.4,11.9,14,0.00,,,-99.99,wx200d/1.3,2013-05-16 21:18:00,
2013-05-16 17:24:00,72.3,32.0,28.41,North,0,4.0,4.0,14,0.00,,,-99.99,wx200d/1.3,2013-05-16 21:24:00,
2013-05-16 17:30:00,72.3,32.0,28.41,SW,220,6.3,6.3,14,0.00,,,-99.99,wx200d/1.3,2013-05-16 21:30:00,
2013-05-16 17:36:00,72.1,32.0,28.41,SW,231,6.3,11.0,14,0.00,,,-99.99,wx200d/1.3,2013-05-16 21:36:00,
2013-05-16 17:42:00,72.0,32.0,28.41,WNW,287,5.8,5.8,14,0.00,,,-99.99,wx200d/1.3,2013-05-16 21:42:00,
2013-05-16 17:48:00,71.8,32.0,28.41,ENE,78,5.4,5.4,14,0.00,,,-99.99,wx200d/1.3,2013-05-16 21:48:00,
2013-05-16 17:54:00,71.6,32.0,28.41,North,6,5.4,5.4,14,0.00,,,-99.99,wx200d/1.3,2013-05-16 21:54:00,
2013-05-16 18:00:00,71.6,32.0,28.41,SSW,205,4.0,4.0,14,0.00,,,-99.99,wx200d/1.3,2013-05-16 22:00:00,
2013-05-16 18:06:00,71.4,32.0,28.41,ENE,57,5.4,5.4,14,0.00,,,-99.99,wx200d/1.3,2013-05-16 22:06:00,
2013-05-16 18:12:00,71.4,32.0,28.41,North,0,8.3,8.3,14,0.00,,,-99.99,wx200d/1.3,2013-05-16 22:12:00,
2013-05-16 18:18:00,71.2,32.0,28.41,SSW,209,4.5,4.5,14,0.00,,,-99.99,wx200d/1.3,2013-05-16 22:18:00,
2013-05-16 18:24:00,71.1,32.0,28.41,North,1,3.6,4.0,14,0.00,,,-99.99,wx200d/1.3,2013-05-16 22:24:00,
2013-05-16 18:30:00,70.9,32.0,28.41,SSW,208,3.6,3.6,14,0.00,,,-99.99,wx200d/1.3,2013-05-16 22:30:00,
2013-05-16 18:36:00,70.7,32.0,28.41,East,86,3.6,3.6,14,0.00,,,-99.99,wx200d/1.3,2013-05-16 22:36:00,
2013-05-16 18:42:00,70.5,32.0,28.41,NE,50,4.5,4.5,14,0.00,,,-99.99,wx200d/1.3,2013-05-16 22:42:00,
2013-05-16 18:48:00,70.3,32.0,28.41,NW,326,4.0,11.0,14,0.00,,,-99.99,wx200d/1.3,2013-05-16 22:48:00,
2013-05-16 18:54:00,70.0,32.0,28.41,South,174,4.5,5.8,14,0.00,,,-99.99,wx200d/1.3,2013-05-16 22:54:00,
2013-05-16 19:00:00,69.8,32.0,28.41,NW,307,3.1,4.9,14,0.00,,,-99.99,wx200d/1.3,2013-05-16 23:00:00,
2013-05-16 19:06:00,69.6,32.0,28.44,SSW,208,3.6,3.6,15,0.00,,,-99.99,wx200d/1.3,2013-05-16 23:06:00,
2013-05-16 19:12:00,69.3,32.0,28.44,South,191,4.9,5.8,15,0.00,,,-99.99,wx200d/1.3,2013-05-16 23:12:00,
2013-05-16 19:18:00,69.1,32.0,28.44,NNE,18,4.5,4.5,15,0.00,,,-99.99,wx200d/1.3,2013-05-16 23:18:00,
2013-05-16 19:24:00,68.9,32.0,28.44,NE,34,4.0,5.4,15,0.00,,,-99.99,wx200d/1.3,2013-05-16 23:24:00,
2013-05-16 19:30:00,68.5,32.0,28.44,SW,221,3.1,3.1,15,0.00,,,-99.99,wx200d/1.3,2013-05-16 23:30:00,
2013-05-16 19:36:00,68.4,32.0,28.44,WSW,244,3.6,4.9,15,0.00,,,-99.99,wx200d/1.3,2013-05-16 23:36:00,
2013-05-16 19:42:00,68.0,32.0,28.44,East,79,4.5,5.4,15,0.00,,,-99.99,wx200d/1.3,2013-05-16 23:42:00,
2013-05-16 19:48:00,67.8,32.0,28.44,North,9,2.7,2.7,15,0.00,,,-99.99,wx200d/1.3,2013-05-16 23:48:00,
2013-05-16 19:54:00,67.5,32.0,28.44,East,93,3.6,4.0,15,0.00,,,-99.99,wx200d/1.3,2013-05-16 23:54:00,
2013-05-16 20:00:00,67.3,32.0,28.44,SE,146,3.6,3.6,15,0.00,,,-99.99,wx200d/1.3,2013-05-17 00:00:00,
2013-05-16 20:06:00,67.1,32.0,28.47,West,261,3.6,3.6,15,0.00,,,-99.99,wx200d/1.3,2013-05-17 00:06:00,
2013-05-16 20:12:00,66.9,32.0,28.47,North,357,2.7,4.0,15,0.00,,,-99.99,wx200d/1.3,2013-05-17 00:12:00,
2013-05-16 20:18:00,66.6,32.0,28.47,SE,137,3.1,3.1,15,0.00,,,-99.99,wx200d/1.3,2013-05-17 00:18:00,
2013-05-16 20:24:00,66.2,32.0,28.47,East,91,2.7,2.7,15,0.00,,,-99.99,wx200d/1.3,2013-05-17 00:24:00,
2013-05-16 20:30:00,65.8,32.0,28.47,NNW,332,2.2,0.0,15,0.00,,,-99.99,wx200d/1.3,2013-05-17 00:30:00,
2013-05-16 20:36:00,65.7,32.0,28.47,SE,131,4.0,5.4,15,0.00,,,-99.99,wx200d/1.3,2013-05-17 00:36:00,
2013-05-16 20:42:00,65.8,32.0,28.47,East,93,4.9,4.9,15,0.00,,,-99.99,wx200d/1.3,2013-05-17 00:42:00,
2013-05-16 20:48:00,65.8,32.0,28.47,North,353,5.4,5.4,15,0.00,,,-99.99,wx200d/1.3,2013-05-17 00:48:00,
2013-05-16 20:54:00,65.7,32.0,28.47,NE,48,3.1,0.0,15,0.00,,,-99.99,wx200d/1.3,2013-05-17 00:54:00,
2013-05-16 21:00:00,65.1,32.0,28.47,South,182,2.7,2.7,15,0.00,,,-99.99,wx200d/1.3,2013-05-17 01:00:00,
2013-05-16 21:06:00,64.9,32.0,28.50,WNW,293,3.1,3.1,15,0.00,,,-99.99,wx200d/1.3,2013-05-17 01:06:00,
2013-05-16 21:12:00,64.8,32.0,28.50,East,93,3.1,3.1,15,0.00,,,-99.99,wx200d/1.3,2013-05-17 01:12:00,
2013-05-16 21:18:00,64.2,32.0,28.50,ENE,69,3.6,6.3,16,0.00,,,-99.99,wx200d/1.3,2013-05-17 01:18:00,
2013-05-16 21:24:00,64.0,32.0,28.50,South,178,0.0,0.0,16,0.00,,,-99.99,wx200d/1.3,2013-05-17 01:24:00,
2013-05-16 21:30:00,63.9,32.0,28.50,NNW,339,0.0,2.7,16,0.00,,,-99.99,wx200d/1.3,2013-05-17 01:30:00,
2013-05-16 21:36:00,63.7,32.0,28.50,North,353,2.7,3.1,16,0.00,,,-99.99,wx200d/1.3,2013-05-17 01:36:00,
2013-05-16 21:42:00,63.3,32.0,28.50,SE,133,4.5,5.8,16,0.00,,,-99.99,wx200d/1.3,2013-05-17 01:42:00,
2013-05-16 21:48:00,63.3,32.0,28.50,NNW,331,2.7,3.1,16,0.00,,,-99.99,wx200d/1.3,2013-05-17 01:48:00,
2013-05-16 21:54:00,63.1,32.0,28.50,WNW,299,3.1,5.4,16,0.00,,,-99.99,wx200d/1.3,2013-05-17 01:54:00,
2013-05-16 22:00:00,62.8,32.0,28.50,WSW,254,2.2,0.0,16,0.00,,,-99.99,wx200d/1.3,2013-05-17 02:00:00,
2013-05-16 22:06:00,62.4,32.0,28.50,West,273,2.2,0.0,16,0.00,,,-99.99,wx200d/1.3,2013-05-17 02:06:00,
2013-05-16 22:12:00,62.2,32.0,28.50,NW,307,2.2,3.6,16,0.00,,,-99.99,wx200d/1.3,2013-05-17 02:12:00,
2013-05-16 22:18:00,61.9,32.0,28.53,NW,323,2.7,3.6,16,0.00,,,-99.99,wx200d/1.3,2013-05-17 02:18:00,
2013-05-16 22:24:00,61.7,32.0,28.53,WNW,294,2.2,0.0,16,0.00,,,-99.99,wx200d/1.3,2013-05-17 02:24:00,
2013-05-16 22:30:00,61.5,32.0,28.53,NNE,12,2.2,3.1,16,0.00,,,-99.99,wx200d/1.3,2013-05-17 02:30:00,
2013-05-16 22:36:00,61.3,32.0,28.53,NW,321,3.1,0.0,16,0.00,,,-99.99,wx200d/1.3,2013-05-17 02:36:00,
2013-05-16 22:42:00,61.0,32.0,28.53,WNW,288,2.2,2.7,16,0.00,,,-99.99,wx200d/1.3,2013-05-17 02:42:00,
2013-05-16 22:48:00,60.8,32.0,28.53,NNW,341,2.2,2.7,16,0.00,,,-99.99,wx200d/1.3,2013-05-17 02:48:00,
2013-05-16 22:54:00,60.4,32.0,28.53,NW,321,0.0,2.7,17,0.00,,,-99.99,wx200d/1.3,2013-05-17 02:54:00,
2013-05-16 23:00:00,59.9,32.0,28.53,West,264,4.0,4.0,17,0.00,,,-99.99,wx200d/1.3,2013-05-17 03:00:00,
2013-05-16 23:06:00,59.5,32.0,28.53,North,357,0.0,0.0,17,0.00,,,-99.99,wx200d/1.3,2013-05-17 03:06:00,
2013-05-16 23:12:00,58.8,32.0,28.53,North,5,0.0,0.0,17,0.00,,,-99.99,wx200d/1.3,2013-05-17 03:12:00,
2013-05-16 23:18:00,58.3,32.0,28.53,North,0,0.0,0.0,17,0.00,,,-99.99,wx200d/1.3,2013-05-17 03:18:00,
2013-05-16 23:24:00,57.6,32.0,28.53,North,2,0.0,0.0,17,0.00,,,-99.99,wx200d/1.3,2013-05-17 03:24:00,
2013-05-16 23:30:00,57.2,32.0,28.53,NNE,17,0.0,2.2,17,0.00,,,-99.99,wx200d/1.3,2013-05-17 03:30:00,
2013-05-16 23:36:00,56.7,32.0,28.53,NNE,15,0.0,0.0,17,0.00,,,-99.99,wx200d/1.3,2013-05-17 03:36:00,
2013-05-16 23:42:00,56.5,32.0,28.53,North,0,0.0,2.2,17,0.00,,,-99.99,wx200d/1.3,2013-05-17 03:42:00,
2013-05-16 23:48:00,56.1,32.0,28.53,North,357,2.2,3.1,17,0.00,,,-99.99,wx200d/1.3,2013-05-17 03:48:00,
2013-05-16 23:54:00,55.9,32.0,28.53,North,0,0.0,0.0,17,0.00,,,-99.99,wx200d/1.3,2013-05-17 03:54:00,